User: anonymous
Location: Melbourne
(37.8170°S, 144.9670°E)
Time: 14:00:08
(UTC+10:00)
Language:

Cosmos 1656 Rocket - Orbit

View from above orbital plane
View from above orbital plane
View from above satellite
View from above satellite

Ground track
Ground track

The orbit data is extracted from the following two-line orbital elements,

1 15772U 85042D   14272.46597111  .00000120  00000-0  76583-4 0  4891
2 15772 071.1074 268.0379 0033903 147.5885 014.4818 14.21034343520553
Epoch (UTC): 29 September 2014 11:10:59
Eccentricity: 0.0033903
inclination: 71.1074°
perigee height: 797 km
apogee height: 846 km
right ascension of ascending node: 268.0379°
argument of perigee: 147.5885°
revolutions per day: 14.21034343
mean anomaly at epoch: 14.4818°
orbit number at epoch: 52055

The dashed part of the orbit path shows where the satellite is in the earth's shadow,  

DLR